Back to catalog

STARLINK-35445

AliveCommunicationsVLEO
NORAD 65880·PAYLOAD·🇺🇸 United States

Launched Oct 3, 2025 from Vandenberg Space Force Base

Loading…

Next Passes (next 24 hours)

TLE

FreshSource: CelesTrak SupGP

Epoch: Sep 14, 2026, 22:58 UTC

1 65880C 25223AC  26257.95743056 -.00056530  00000+0 -16704-2 0  2579
2 65880  53.1567 131.5004 0001297  89.4874 260.2895 15.34414100    15

Track STARLINK-35445 in real time with AllMySat

Download on the App Store